UWKDUWKE

Guest
Details From UWKD - KAZAN
To UWKE - BEGISHEVO
Flight Number -
Tags decoded
Created
Modified
Stats Distance 100 nm / 186 km
Max Altitude 0 ft / 0 m
Waypoints 4
Social Downloads 1
Likes 0
Share VATSIM

Download

Looking for another format? Having issues loading an existing format? Contact us
Advertisement - Login to hide

Notes

Requested: UWKD BENOD A235 RITOP UWKE Unmatched points: A235

Route

UWKD BENOD RITOP UWKE

ID Type Via Altitude Latitude Longitude Leg Dist Tot Dist Heading (true) Name
O UWKD APT - 0 ft / 0 m 55.60654˚ 49.27969˚ - 0 nm - KAZAN
BENOD FIX - 0 ft / 0 m 55.41667˚ 50.21667˚ 33 nm 33 nm 109° / 110° -
RITOP FIX - 0 ft / 0 m 55.33333˚ 50.64833˚ 15 nm 49 nm 109° / 109° -
O UWKE APT - 0 ft / 0 m 55.56376˚ 52.08979˚ 51 nm 100 nm 74° / 75° BEGISHEVO

Altitude Profile

Advertisement - Login to hide

UWKD

Details ICAO UWKD (KZN)
Name KAZAN
Region Russia
Timezone Europe/Moscow (UTC+3.0)
Stats Elevation 411 ft / 125 m (AMSL)
Location 55.606544° 49.279689°
Runways 2
Magnetic Variation 13.334° E

METAR

UWKD 242300Z 36003MPS 9999 FEW050CB 14/10 Q1016 R29/70D NOSIG RMK QFE751/1001

Decode

TAF

TAF UWKD 241957Z 2421/2521 01003MPS 9999 BKN020 TX15/2509Z TN08/2503Z TEMPO 2421/2503 35005G10MPS 5000 -SHRA BKN015CB BECMG 2503/2505 02007G12MPS TEMPO 2509/2515 02009G14MPS

Decode

Departure Runways

ID Width Length Bearing (true) Bearing (mag) Surface Threshold Offset Overrun Length
11L 144 ft / 44 m 12,189 ft / 3,715 m 126.46° 113.13° Concrete 837 ft / 255 m 0 ft / 0 m
11R 148 ft / 45 m 8,174 ft / 2,492 m 124.48° 111.15° Concrete 0 ft / 0 m 180 ft / 55 m
29L 148 ft / 45 m 8,174 ft / 2,492 m 304.51° 291.18° Concrete 0 ft / 0 m 180 ft / 55 m
29R 144 ft / 44 m 12,189 ft / 3,715 m 306.50° 293.17° Concrete 0 ft / 0 m 160 ft / 49 m

UWKE

Details ICAO UWKE (NBC)
Name BEGISHEVO
Region Russia
Timezone Europe/Moscow (UTC+3.0)
Stats Elevation 643 ft / 196 m (AMSL)
Location 55.563755° 52.089791°
Runways 2
Magnetic Variation 13.643° E

METAR

UWKE 242300Z 01004MPS 9999 FEW026CB 14/11 Q1015 R03/090070 NOSIG RMK QFE744/0992

Decode

TAF

TAF UWKE 241945Z 2421/2521 30003G09MPS 9999 BKN020 TEMPO 2421/2502 24003G09MPS 3100 -SHRA BKN007 BKN015CB BECMG 2502/2503 36006G12MPS

Decode

Destination Runways

ID Width Length Bearing (true) Bearing (mag) Surface Threshold Offset Overrun Length
03 190 ft / 58 m 5,609 ft / 1,710 m 47.09° 33.45° Grass 0 ft / 0 m 0 ft / 0 m
04 138 ft / 42 m 8,149 ft / 2,484 m 46.89° 33.25° Asphalt 0 ft / 0 m 170 ft / 52 m
21 190 ft / 58 m 5,609 ft / 1,710 m 227.11° 213.47° Grass 0 ft / 0 m 0 ft / 0 m
22 138 ft / 42 m 8,149 ft / 2,484 m 226.91° 213.27° Asphalt 0 ft / 0 m 190 ft / 58 m

Approach Navaids

Runway Type Ident Frequency Range Bearing (true) Bearing (mag) Slope Elevation
22 Localiser INK 109.90 MHz 18 nm / 33 km 226.51° 212.87° - 643 ft / 196 m (AMSL)
22 Glidescope INK 109.90 MHz 10 nm / 19 km 226.90° 213.26° 2.70° 643 ft / 196 m (AMSL)

Popular Alternatives